Home   Weather   Portland   Past weeks

Flag for USA Past Weather in Portland, Oregon, USA — Yesterday and Last 2 Weeks

Now
41 °F

Light rain. Mostly cloudy.


Feels Like: 33 °F
Forecast: 39 / 43 °F
Wind: 16 mph from Southeast

Location: Portland International Airport

Current Time: Jan 20, 2017 at 8:17:36 am

Latest Report: Jan 20, 2017 at 6:53 am


Visibility: 10 mi

Pressure: 29.14 "Hg

Humidity: 74%

Dew Point: 33 °F

Location of PortlandLocation

Past Weather in Portland — Graph

°F

Portland Temperature Yesterday

Maximum temperature yesterday: 52 °F (at 1:53 pm)
Minimum temperature yesterday: 35 °F (at 2:53 am)
Average temperature yesterday: 42 °F

High & Low Weather Summary for the Past Weeks

 TemperatureHumidityPressure
High52 °F (Jan 19, 1:53 pm)100% (Jan 9, 7:21 pm)30.48 "Hg (Jan 9, 7:21 pm)
Low12 °F (Jan 13, 6:53 am)40% (Jan 5, 2:53 pm)29.14 "Hg (Jan 20, 6:53 am)
Average30 °F78%29.90 "Hg
* Reported Jan 5 6:53 am — Jan 20 6:53 am, Portland, Weather by CustomWeather, © 2017

Note: Actual official high and low records may vary slightly from our data, if they occured in-between our weather recording intervals... More about our weather records

Advertising

Portland Weather History for the Previous 24 Hours

Scroll right to see more
 ConditionsComfort  
Time TempWeatherWind HumidityBarometerVisibility
6:53 am
Fri, Jan 20
41 °FLight rain. Mostly cloudy.16 mph74%29.14 "Hg10 mi
5:53 am40 °FMostly cloudy.14 mph80%29.15 "Hg10 mi
4:53 am40 °FOvercast.8 mph80%29.18 "Hg10 mi
3:53 am39 °FMostly cloudy.9 mph82%29.22 "Hg10 mi
2:53 am39 °FOvercast.13 mph86%29.26 "Hg10 mi
1:53 am39 °FMostly cloudy.15 mph86%29.30 "Hg10 mi
12:53 am38 °FMostly cloudy.12 mph93%29.35 "Hg10 mi
11:53 pm
Thu, Jan 19
38 °FPassing clouds.12 mph93%29.39 "Hg10 mi
10:53 pm37 °FPassing clouds.12 mph93%29.44 "Hg10 mi
9:53 pm37 °FPassing clouds.14 mph93%29.47 "Hg10 mi
8:53 pm38 °FPassing clouds.14 mph93%29.50 "Hg10 mi
7:53 pm39 °FPassing clouds.12 mph89%29.53 "Hg10 mi
6:53 pm39 °FPassing clouds.12 mph89%29.55 "Hg10 mi
5:53 pm41 °FMostly cloudy.13 mph86%29.57 "Hg10 mi
4:53 pm50 °FPartly sunny.8 mph66%29.57 "Hg10 mi
3:53 pm51 °FPartly sunny.12 mph63%29.57 "Hg10 mi
2:53 pm51 °FPartly sunny.18 mph66%29.57 "Hg10 mi
1:53 pm52 °FPartly sunny.16 mph64%29.58 "Hg10 mi
12:53 pm51 °FBroken clouds.15 mph66%29.60 "Hg10 mi
11:53 am51 °FPartly sunny.17 mph69%29.61 "Hg10 mi
10:53 am48 °FBroken clouds.17 mph74%29.62 "Hg10 mi
9:53 am47 °FBroken clouds.15 mph77%29.62 "Hg10 mi
8:53 am37 °FBroken clouds.10 mph93%29.62 "Hg7 mi
Weather by CustomWeather, © 2017

See weather overviewHow to use our weather pages